Zurück zum Katalog

STARLINK-11341

AktivKommunikationVLEO
NORAD 61696·PAYLOAD·🇺🇸 United States

Gestartet Oct 30, 2024 von Vandenberg Space Force Base

Loading…

Nächste Überflüge (nächste 24 Stunden)

TLE

AktuellSource: CelesTrak SupGP

Epoche: Sep 14, 2026, 21:33 UTC

1 61696C 24195K   26257.89840278 -.00014129  00000+0 -11634-3 0  2570
2 61696  53.1572 173.3687 0001083  87.5428 255.6138 15.69726677    11

Verfolge STARLINK-11341 in Echtzeit mit AllMySat

Download on the App Store